Year,Month,Day,Hour,Minute,Value (Times are PST for temperature in C)
2017,06,25,00,00,15.20
2017,06,25,00,01,15.20
2017,06,25,00,02,15.20
2017,06,25,00,03,15.20
2017,06,25,00,04,15.20
2017,06,25,00,05,15.20
2017,06,25,00,06,15.10
2017,06,25,00,07,15.10
2017,06,25,00,08,15.10
2017,06,25,00,09,15.10
2017,06,25,00,10,15.10
2017,06,25,00,11,15.10
2017,06,25,00,12,15.10
2017,06,25,00,13,15.10
2017,06,25,00,14,15.10
2017,06,25,00,15,15.10
2017,06,25,00,16,15.10
2017,06,25,00,17,15.00
2017,06,25,00,18,15.00
2017,06,25,00,19,15.00
2017,06,25,00,20,15.00
2017,06,25,00,21,15.00
2017,06,25,00,22,15.00
2017,06,25,00,23,15.00
2017,06,25,00,24,14.90
2017,06,25,00,25,14.90
2017,06,25,00,26,14.90
2017,06,25,00,27,14.90
2017,06,25,00,28,14.90
2017,06,25,00,29,14.90
2017,06,25,00,30,14.90
2017,06,25,00,31,14.80
2017,06,25,00,32,14.80
2017,06,25,00,33,14.80
2017,06,25,00,34,14.80
2017,06,25,00,35,14.80
2017,06,25,00,36,14.80
2017,06,25,00,37,14.70
2017,06,25,00,38,14.70
2017,06,25,00,39,14.70
2017,06,25,00,40,14.70
2017,06,25,00,41,14.70
2017,06,25,00,42,14.70
2017,06,25,00,43,14.70
2017,06,25,00,44,14.70
2017,06,25,00,45,14.60
2017,06,25,00,46,14.60
2017,06,25,00,47,14.60
2017,06,25,00,48,14.60
2017,06,25,00,49,14.60
2017,06,25,00,50,14.60
2017,06,25,00,51,14.60
2017,06,25,00,52,14.50
2017,06,25,00,53,14.50
2017,06,25,00,54,14.50
2017,06,25,00,55,14.40
2017,06,25,00,56,14.40
2017,06,25,00,57,14.40
2017,06,25,00,58,14.40
2017,06,25,00,59,14.40
2017,06,25,01,00,14.30
2017,06,25,01,01,14.30
2017,06,25,01,02,14.30
2017,06,25,01,03,14.30
2017,06,25,01,04,14.30
2017,06,25,01,05,14.30
2017,06,25,01,06,14.20
2017,06,25,01,07,14.20
2017,06,25,01,08,14.20
2017,06,25,01,09,14.20
2017,06,25,01,10,14.20
2017,06,25,01,11,14.20
2017,06,25,01,12,14.20
2017,06,25,01,13,14.10
2017,06,25,01,14,14.10
2017,06,25,01,15,14.10
2017,06,25,01,16,14.10
2017,06,25,01,17,14.10
2017,06,25,01,18,14.10
2017,06,25,01,19,14.00
2017,06,25,01,20,14.00
2017,06,25,01,21,14.00
2017,06,25,01,22,14.00
2017,06,25,01,23,14.00
2017,06,25,01,24,14.00
2017,06,25,01,25,13.90
2017,06,25,01,26,13.90
2017,06,25,01,27,13.90
2017,06,25,01,28,13.90
2017,06,25,01,29,13.80
2017,06,25,01,30,13.80
2017,06,25,01,31,13.80
2017,06,25,01,32,13.80
2017,06,25,01,33,13.80
2017,06,25,01,34,13.70
2017,06,25,01,35,13.70
2017,06,25,01,36,13.70
2017,06,25,01,37,13.70
2017,06,25,01,38,13.70
2017,06,25,01,39,13.60
2017,06,25,01,40,13.60
2017,06,25,01,41,13.60
2017,06,25,01,42,13.60
2017,06,25,01,43,13.60
2017,06,25,01,44,13.60
2017,06,25,01,45,13.60
2017,06,25,01,46,13.50
2017,06,25,01,47,13.50
2017,06,25,01,48,13.50
2017,06,25,01,49,13.50
2017,06,25,01,50,13.50
2017,06,25,01,51,13.40
2017,06,25,01,52,13.40
2017,06,25,01,53,13.40
2017,06,25,01,54,13.40
2017,06,25,01,55,13.40
2017,06,25,01,56,13.40
2017,06,25,01,57,13.40
2017,06,25,01,58,13.40
2017,06,25,01,59,13.30
2017,06,25,02,00,13.30
2017,06,25,02,01,13.30
2017,06,25,02,02,13.30
2017,06,25,02,03,13.30
2017,06,25,02,04,13.30
2017,06,25,02,05,13.30
2017,06,25,02,06,13.30
2017,06,25,02,07,13.20
2017,06,25,02,08,13.20
2017,06,25,02,09,13.20
2017,06,25,02,10,13.20
2017,06,25,02,11,13.20
2017,06,25,02,12,13.20
2017,06,25,02,13,13.10
2017,06,25,02,14,13.10
2017,06,25,02,15,13.10
2017,06,25,02,16,13.10
2017,06,25,02,17,13.00
2017,06,25,02,18,13.00
2017,06,25,02,19,13.00
2017,06,25,02,20,13.00
2017,06,25,02,21,13.00
2017,06,25,02,22,12.90
2017,06,25,02,23,12.90
2017,06,25,02,24,12.90
2017,06,25,02,25,12.90
2017,06,25,02,26,12.90
2017,06,25,02,27,12.90
2017,06,25,02,28,12.90
2017,06,25,02,29,12.80
2017,06,25,02,30,12.80
2017,06,25,02,31,12.80
2017,06,25,02,32,12.80
2017,06,25,02,33,12.80
2017,06,25,02,34,12.80
2017,06,25,02,35,12.80
2017,06,25,02,36,12.80
2017,06,25,02,37,12.80
2017,06,25,02,38,12.80
2017,06,25,02,39,12.70
2017,06,25,02,40,12.70
2017,06,25,02,41,12.70
2017,06,25,02,42,12.70
2017,06,25,02,43,12.70
2017,06,25,02,44,12.70
2017,06,25,02,45,12.70
2017,06,25,02,46,12.70
2017,06,25,02,47,12.70
2017,06,25,02,48,12.70
2017,06,25,02,49,12.60
2017,06,25,02,50,12.60
2017,06,25,02,51,12.60
2017,06,25,02,52,12.60
2017,06,25,02,53,12.60
2017,06,25,02,54,12.60
2017,06,25,02,55,12.60
2017,06,25,02,56,12.60
2017,06,25,02,57,12.60
2017,06,25,02,58,12.60
2017,06,25,02,59,12.60
2017,06,25,03,00,12.50
2017,06,25,03,01,12.50
2017,06,25,03,02,12.50
2017,06,25,03,03,12.50
2017,06,25,03,04,12.50
2017,06,25,03,05,12.40
2017,06,25,03,06,12.40
2017,06,25,03,07,12.40
2017,06,25,03,08,12.40
2017,06,25,03,09,12.40
2017,06,25,03,10,12.40
2017,06,25,03,11,12.40
2017,06,25,03,12,12.40
2017,06,25,03,13,12.40
2017,06,25,03,14,12.30
2017,06,25,03,15,12.30
2017,06,25,03,16,12.30
2017,06,25,03,17,12.30
2017,06,25,03,18,12.30
2017,06,25,03,19,12.30
2017,06,25,03,20,12.30
2017,06,25,03,21,12.30
2017,06,25,03,22,12.30
2017,06,25,03,23,12.20
2017,06,25,03,24,12.20
2017,06,25,03,25,12.20
2017,06,25,03,26,12.20
2017,06,25,03,27,12.20
2017,06,25,03,28,12.20
2017,06,25,03,29,12.20
2017,06,25,03,30,12.10
2017,06,25,03,31,12.10
2017,06,25,03,32,12.10
2017,06,25,03,33,12.10
2017,06,25,03,34,12.10
2017,06,25,03,35,12.10
2017,06,25,03,36,12.00
2017,06,25,03,37,12.00
2017,06,25,03,38,12.00
2017,06,25,03,39,12.00
2017,06,25,03,40,11.90
2017,06,25,03,41,11.90
2017,06,25,03,42,11.90
2017,06,25,03,43,11.90
2017,06,25,03,44,11.90
2017,06,25,03,45,11.90
2017,06,25,03,46,11.90
2017,06,25,03,47,11.90
2017,06,25,03,48,11.90
2017,06,25,03,49,11.90
2017,06,25,03,50,11.90
2017,06,25,03,51,11.80
2017,06,25,03,52,11.80
2017,06,25,03,53,11.80
2017,06,25,03,54,11.80
2017,06,25,03,55,11.80
2017,06,25,03,56,11.80
2017,06,25,03,57,11.80
2017,06,25,03,58,11.80
2017,06,25,03,59,11.80
2017,06,25,04,00,11.70
2017,06,25,04,01,11.70
2017,06,25,04,02,11.70
2017,06,25,04,03,11.70
2017,06,25,04,04,11.70
2017,06,25,04,05,11.70
2017,06,25,04,06,11.70
2017,06,25,04,07,11.70
2017,06,25,04,08,11.70
2017,06,25,04,09,11.70
2017,06,25,04,10,11.70
2017,06,25,04,11,11.60
2017,06,25,04,12,11.60
2017,06,25,04,13,11.60
2017,06,25,04,14,11.70
2017,06,25,04,15,11.60
2017,06,25,04,16,11.60
2017,06,25,04,17,11.60
2017,06,25,04,18,11.60
2017,06,25,04,19,11.60
2017,06,25,04,20,11.60
2017,06,25,04,21,11.60
2017,06,25,04,22,11.60
2017,06,25,04,23,11.60
2017,06,25,04,24,11.60
2017,06,25,04,25,11.60
2017,06,25,04,26,11.50
2017,06,25,04,27,11.60
2017,06,25,04,28,11.50
2017,06,25,04,29,11.50
2017,06,25,04,30,11.50
2017,06,25,04,31,11.50
2017,06,25,04,32,11.50
2017,06,25,04,33,11.50
2017,06,25,04,34,11.40
2017,06,25,04,35,11.40
2017,06,25,04,36,11.40
2017,06,25,04,37,11.40
2017,06,25,04,38,11.40
2017,06,25,04,39,11.40
2017,06,25,04,40,11.40
2017,06,25,04,41,11.40
2017,06,25,04,42,11.40
2017,06,25,04,43,11.30
2017,06,25,04,44,11.30
2017,06,25,04,45,11.30
2017,06,25,04,46,11.30
2017,06,25,04,47,11.30
2017,06,25,04,48,11.30
2017,06,25,04,49,11.30
2017,06,25,04,50,11.20
2017,06,25,04,51,11.20
2017,06,25,04,52,11.20
2017,06,25,04,53,11.20
2017,06,25,04,54,11.20
2017,06,25,04,55,11.20
2017,06,25,04,56,11.20
2017,06,25,04,57,11.10
2017,06,25,04,58,11.10
2017,06,25,04,59,11.10
2017,06,25,05,00,11.10
2017,06,25,05,01,11.10
2017,06,25,05,02,11.10
2017,06,25,05,03,11.10
2017,06,25,05,04,11.10
2017,06,25,05,05,11.10
2017,06,25,05,06,11.10
2017,06,25,05,07,11.00
2017,06,25,05,08,11.00
2017,06,25,05,09,11.00
2017,06,25,05,10,11.00
2017,06,25,05,11,11.00
2017,06,25,05,12,11.00
2017,06,25,05,13,10.90
2017,06,25,05,14,10.90
2017,06,25,05,15,10.90
2017,06,25,05,16,10.90
2017,06,25,05,17,10.90
2017,06,25,05,18,10.90
2017,06,25,05,19,10.90
2017,06,25,05,20,10.90
2017,06,25,05,21,10.90
2017,06,25,05,22,10.90
2017,06,25,05,23,10.90
2017,06,25,05,24,10.90
2017,06,25,05,25,10.90
2017,06,25,05,26,10.80
2017,06,25,05,27,10.80
2017,06,25,05,28,10.80
2017,06,25,05,29,10.80
2017,06,25,05,30,10.80
2017,06,25,05,31,10.80
2017,06,25,05,32,10.80
2017,06,25,05,33,10.80
2017,06,25,05,34,10.80
2017,06,25,05,35,10.80
2017,06,25,05,36,10.80
2017,06,25,05,37,10.80
2017,06,25,05,38,10.80
2017,06,25,05,39,10.80
2017,06,25,05,40,10.80
2017,06,25,05,41,10.80
2017,06,25,05,42,10.80
2017,06,25,05,43,10.80
2017,06,25,05,44,10.80
2017,06,25,05,45,10.80
2017,06,25,05,46,10.80
2017,06,25,05,47,10.80
2017,06,25,05,48,10.80
2017,06,25,05,49,10.80
2017,06,25,05,50,10.80
2017,06,25,05,51,10.80
2017,06,25,05,52,10.80
2017,06,25,05,53,10.80
2017,06,25,05,54,10.80
2017,06,25,05,55,10.80
2017,06,25,05,56,10.80
2017,06,25,05,57,10.80
2017,06,25,05,58,10.80
2017,06,25,05,59,10.90
2017,06,25,06,00,10.90
2017,06,25,06,01,10.90
2017,06,25,06,02,10.90
2017,06,25,06,03,10.90
2017,06,25,06,04,10.90
2017,06,25,06,05,10.90
2017,06,25,06,06,11.00
2017,06,25,06,07,11.00
2017,06,25,06,08,11.00
2017,06,25,06,09,11.10
2017,06,25,06,10,11.10
2017,06,25,06,11,11.10
2017,06,25,06,12,11.20
2017,06,25,06,13,11.20
2017,06,25,06,14,11.20
2017,06,25,06,15,11.30
2017,06,25,06,16,11.30
2017,06,25,06,17,11.40
2017,06,25,06,18,11.40
2017,06,25,06,19,11.50
2017,06,25,06,20,11.50
2017,06,25,06,21,11.60
2017,06,25,06,22,11.60
2017,06,25,06,23,11.70
2017,06,25,06,24,11.80
2017,06,25,06,25,11.80
2017,06,25,06,26,11.80
2017,06,25,06,27,11.90
2017,06,25,06,28,11.90
2017,06,25,06,29,12.00
2017,06,25,06,30,12.00
2017,06,25,06,31,12.00
2017,06,25,06,32,12.10
2017,06,25,06,33,12.10
2017,06,25,06,34,12.10
2017,06,25,06,35,12.20
2017,06,25,06,36,12.20
2017,06,25,06,37,12.20
2017,06,25,06,38,12.20
2017,06,25,06,39,12.30
2017,06,25,06,40,12.30
2017,06,25,06,41,12.40
2017,06,25,06,42,12.40
2017,06,25,06,43,12.50
2017,06,25,06,44,12.60
2017,06,25,06,45,12.60
2017,06,25,06,46,12.70
2017,06,25,06,47,12.80
2017,06,25,06,48,12.90
2017,06,25,06,49,13.00
2017,06,25,06,50,13.10
2017,06,25,06,51,13.20
2017,06,25,06,52,13.40
2017,06,25,06,53,13.40
2017,06,25,06,54,13.50
2017,06,25,06,55,13.60
2017,06,25,06,56,13.60
2017,06,25,06,57,13.60
2017,06,25,06,58,13.70
2017,06,25,06,59,13.70
2017,06,25,07,00,13.70
2017,06,25,07,01,13.80
2017,06,25,07,02,13.80
2017,06,25,07,03,13.90
2017,06,25,07,04,13.90
2017,06,25,07,05,14.00
2017,06,25,07,06,14.10
2017,06,25,07,07,14.20
2017,06,25,07,08,14.30
2017,06,25,07,09,14.30
2017,06,25,07,10,14.40
2017,06,25,07,11,14.50
2017,06,25,07,12,14.60
2017,06,25,07,13,14.70
2017,06,25,07,14,14.80
2017,06,25,07,15,14.90
2017,06,25,07,16,15.00
2017,06,25,07,17,15.00
2017,06,25,07,18,15.10
2017,06,25,07,19,15.20
2017,06,25,07,20,15.20
2017,06,25,07,21,15.30
2017,06,25,07,22,15.40
2017,06,25,07,23,15.40
2017,06,25,07,24,15.50
2017,06,25,07,25,15.60
2017,06,25,07,26,15.70
2017,06,25,07,27,15.70
2017,06,25,07,28,15.80
2017,06,25,07,29,15.80
2017,06,25,07,30,15.80
2017,06,25,07,31,15.80
2017,06,25,07,32,15.90
2017,06,25,07,33,16.00
2017,06,25,07,34,16.00
2017,06,25,07,35,16.00
2017,06,25,07,36,16.10
2017,06,25,07,37,16.10
2017,06,25,07,38,16.20
2017,06,25,07,39,16.20
2017,06,25,07,40,16.20
2017,06,25,07,41,16.30
2017,06,25,07,42,16.30
2017,06,25,07,43,16.40
2017,06,25,07,44,16.40
2017,06,25,07,45,16.50
2017,06,25,07,46,16.50
2017,06,25,07,47,16.60
2017,06,25,07,48,16.70
2017,06,25,07,49,16.70
2017,06,25,07,50,16.70
2017,06,25,07,51,16.80
2017,06,25,07,52,16.80
2017,06,25,07,53,16.90
2017,06,25,07,54,16.90
2017,06,25,07,55,17.00
2017,06,25,07,56,17.00
2017,06,25,07,57,17.10
2017,06,25,07,58,17.10
2017,06,25,07,59,17.20
2017,06,25,08,00,17.20
2017,06,25,08,01,17.30
2017,06,25,08,02,17.30
2017,06,25,08,03,17.30
2017,06,25,08,04,17.40
2017,06,25,08,05,17.40
2017,06,25,08,06,17.40
2017,06,25,08,07,17.40
2017,06,25,08,08,17.40
2017,06,25,08,09,17.50
2017,06,25,08,10,17.50
2017,06,25,08,11,17.50
2017,06,25,08,12,17.60
2017,06,25,08,13,17.60
2017,06,25,08,14,17.70
2017,06,25,08,15,17.70
2017,06,25,08,16,17.70
2017,06,25,08,17,17.80
2017,06,25,08,18,17.80
2017,06,25,08,19,17.80
2017,06,25,08,20,17.90
2017,06,25,08,21,17.90
2017,06,25,08,22,18.00
2017,06,25,08,23,18.00
2017,06,25,08,24,18.10
2017,06,25,08,25,18.10
2017,06,25,08,26,18.10
2017,06,25,08,27,18.20
2017,06,25,08,28,18.20
2017,06,25,08,29,18.30
2017,06,25,08,30,18.50
2017,06,25,08,31,18.60
2017,06,25,08,32,18.60
2017,06,25,08,33,18.70
2017,06,25,08,34,18.80
2017,06,25,08,35,18.90
2017,06,25,08,36,19.00
2017,06,25,08,37,19.10
2017,06,25,08,38,19.10
2017,06,25,08,39,19.20
2017,06,25,08,40,19.20
2017,06,25,08,41,19.20
2017,06,25,08,42,19.30
2017,06,25,08,43,19.30
2017,06,25,08,44,19.40
2017,06,25,08,45,19.40
2017,06,25,08,46,19.40
2017,06,25,08,47,19.40
2017,06,25,08,48,19.30
2017,06,25,08,49,19.30
2017,06,25,08,50,19.30
2017,06,25,08,51,19.30
2017,06,25,08,52,19.30
2017,06,25,08,53,19.30
2017,06,25,08,54,19.30
2017,06,25,08,55,19.40
2017,06,25,08,56,19.40
2017,06,25,08,57,19.50
2017,06,25,08,58,19.50
2017,06,25,08,59,19.50
2017,06,25,09,00,19.50
2017,06,25,09,01,19.40
2017,06,25,09,02,19.30
2017,06,25,09,03,19.30
2017,06,25,09,04,19.30
2017,06,25,09,05,19.30
2017,06,25,09,06,19.40
2017,06,25,09,07,19.40
2017,06,25,09,08,19.40
2017,06,25,09,09,19.40
2017,06,25,09,10,19.30
2017,06,25,09,11,19.30
2017,06,25,09,12,19.20
2017,06,25,09,13,19.20
2017,06,25,09,14,19.20
2017,06,25,09,15,19.20
2017,06,25,09,16,19.20
2017,06,25,09,17,19.20
2017,06,25,09,18,19.20
2017,06,25,09,19,19.30
2017,06,25,09,20,19.30
2017,06,25,09,21,19.40
2017,06,25,09,22,19.50
2017,06,25,09,23,19.60
2017,06,25,09,24,19.70
2017,06,25,09,25,19.70
2017,06,25,09,26,19.70
2017,06,25,09,27,19.70
2017,06,25,09,28,19.60
2017,06,25,09,29,19.60
2017,06,25,09,30,19.70
2017,06,25,09,31,19.70
2017,06,25,09,32,19.80
2017,06,25,09,33,19.80
2017,06,25,09,34,19.90
2017,06,25,09,35,19.80
2017,06,25,09,36,19.90
2017,06,25,09,37,19.80
2017,06,25,09,38,19.80
2017,06,25,09,39,19.80
2017,06,25,09,40,19.80
2017,06,25,09,41,19.80
2017,06,25,09,42,19.80
2017,06,25,09,43,19.90
2017,06,25,09,44,19.90
2017,06,25,09,45,19.90
2017,06,25,09,46,19.90
2017,06,25,09,47,19.90
2017,06,25,09,48,19.90
2017,06,25,09,49,19.90
2017,06,25,09,50,19.90
2017,06,25,09,51,19.90
2017,06,25,09,52,20.00
2017,06,25,09,53,20.00
2017,06,25,09,54,20.10
2017,06,25,09,55,20.20
2017,06,25,09,56,20.30
2017,06,25,09,57,20.30
2017,06,25,09,58,20.30
2017,06,25,09,59,20.40
2017,06,25,10,00,20.60
2017,06,25,10,01,20.70
2017,06,25,10,02,20.80
2017,06,25,10,03,20.80
2017,06,25,10,04,20.90
2017,06,25,10,05,21.00
2017,06,25,10,06,21.10
2017,06,25,10,07,21.20
2017,06,25,10,08,21.30
2017,06,25,10,09,21.40
2017,06,25,10,10,21.50
2017,06,25,10,11,21.60
2017,06,25,10,12,21.70
2017,06,25,10,13,21.80
2017,06,25,10,14,21.90
2017,06,25,10,15,21.90
2017,06,25,10,16,21.80
2017,06,25,10,17,21.80
2017,06,25,10,18,21.80
2017,06,25,10,19,21.90
2017,06,25,10,20,21.90
2017,06,25,10,21,22.00
2017,06,25,10,22,22.10
2017,06,25,10,23,22.10
2017,06,25,10,24,22.20
2017,06,25,10,25,22.20
2017,06,25,10,26,22.20
2017,06,25,10,27,22.20
2017,06,25,10,28,22.10
2017,06,25,10,29,22.00
2017,06,25,10,30,22.00
2017,06,25,10,31,22.00
2017,06,25,10,32,22.00
2017,06,25,10,33,22.00
2017,06,25,10,34,22.00
2017,06,25,10,35,21.90
2017,06,25,10,36,21.90
2017,06,25,10,37,21.90
2017,06,25,10,38,21.90
2017,06,25,10,39,21.90
2017,06,25,10,40,21.90
2017,06,25,10,41,21.90
2017,06,25,10,42,22.00
2017,06,25,10,43,22.00
2017,06,25,10,44,22.10
2017,06,25,10,45,22.10
2017,06,25,10,46,22.20
2017,06,25,10,47,22.30
2017,06,25,10,48,22.40
2017,06,25,10,49,22.40
2017,06,25,10,50,22.50
2017,06,25,10,51,22.50
2017,06,25,10,52,22.60
2017,06,25,10,53,22.60
2017,06,25,10,54,22.60
2017,06,25,10,55,22.60
2017,06,25,10,56,22.50
2017,06,25,10,57,22.40
2017,06,25,10,58,22.30
2017,06,25,10,59,22.30
2017,06,25,11,00,22.20
2017,06,25,11,01,22.20
2017,06,25,11,02,22.20
2017,06,25,11,03,22.10
2017,06,25,11,04,22.10
2017,06,25,11,05,22.10
2017,06,25,11,06,22.10
2017,06,25,11,07,22.10
2017,06,25,11,08,22.10
2017,06,25,11,09,22.10
2017,06,25,11,10,22.10
2017,06,25,11,11,22.10
2017,06,25,11,12,22.10
2017,06,25,11,13,22.20
2017,06,25,11,14,22.30
2017,06,25,11,15,22.30
2017,06,25,11,16,22.30
2017,06,25,11,17,22.40
2017,06,25,11,18,22.40
2017,06,25,11,19,22.50
2017,06,25,11,20,22.50
2017,06,25,11,21,22.60
2017,06,25,11,22,22.70
2017,06,25,11,23,22.80
2017,06,25,11,24,22.80
2017,06,25,11,25,22.80
2017,06,25,11,26,22.80
2017,06,25,11,27,22.80
2017,06,25,11,28,22.90
2017,06,25,11,29,22.90
2017,06,25,11,30,23.00
2017,06,25,11,31,22.90
2017,06,25,11,32,22.90
2017,06,25,11,33,22.90
2017,06,25,11,34,23.00
2017,06,25,11,35,23.00
2017,06,25,11,36,23.00
2017,06,25,11,37,23.00
2017,06,25,11,38,23.10
2017,06,25,11,39,23.10
2017,06,25,11,40,23.20
2017,06,25,11,41,23.20
2017,06,25,11,42,23.30
2017,06,25,11,43,23.30
2017,06,25,11,44,23.20
2017,06,25,11,45,23.20
2017,06,25,11,46,23.20
2017,06,25,11,47,23.20
2017,06,25,11,48,23.20
2017,06,25,11,49,23.20
2017,06,25,11,50,23.20
2017,06,25,11,51,23.20
2017,06,25,11,52,23.20
2017,06,25,11,53,23.20
2017,06,25,11,54,23.30
2017,06,25,11,55,23.30
2017,06,25,11,56,23.30
2017,06,25,11,57,23.40
2017,06,25,11,58,23.40
2017,06,25,11,59,23.30
2017,06,25,12,00,23.30
2017,06,25,12,01,23.30
2017,06,25,12,02,23.30
2017,06,25,12,03,23.40
2017,06,25,12,04,23.40
2017,06,25,12,05,23.50
2017,06,25,12,06,23.60
2017,06,25,12,07,23.80
2017,06,25,12,08,23.90
2017,06,25,12,09,24.00
2017,06,25,12,10,24.10
2017,06,25,12,11,24.20
2017,06,25,12,12,24.20
2017,06,25,12,13,24.30
2017,06,25,12,14,24.40
2017,06,25,12,15,24.50
2017,06,25,12,16,24.60
2017,06,25,12,17,24.70
2017,06,25,12,18,24.70
2017,06,25,12,19,24.70
2017,06,25,12,20,24.70
2017,06,25,12,21,24.60
2017,06,25,12,22,24.60
2017,06,25,12,23,24.60
2017,06,25,12,24,24.70
2017,06,25,12,25,24.70
2017,06,25,12,26,24.80
2017,06,25,12,27,24.80
2017,06,25,12,28,24.80
2017,06,25,12,29,24.70
2017,06,25,12,30,24.70
2017,06,25,12,31,24.60
2017,06,25,12,32,24.50
2017,06,25,12,33,24.40
2017,06,25,12,34,24.30
2017,06,25,12,35,24.20
2017,06,25,12,36,24.20
2017,06,25,12,37,24.20
2017,06,25,12,38,24.20
2017,06,25,12,39,24.20
2017,06,25,12,40,24.20
2017,06,25,12,41,24.20
2017,06,25,12,42,24.20
2017,06,25,12,43,24.20
2017,06,25,12,44,24.20
2017,06,25,12,45,24.20
2017,06,25,12,46,24.20
2017,06,25,12,47,24.30
2017,06,25,12,48,24.30
2017,06,25,12,49,24.30
2017,06,25,12,50,24.40
2017,06,25,12,51,24.40
2017,06,25,12,52,24.40
2017,06,25,12,53,24.40
2017,06,25,12,54,24.50
2017,06,25,12,55,24.60
2017,06,25,12,56,24.70
2017,06,25,12,57,24.80
2017,06,25,12,58,24.90
2017,06,25,12,59,25.10
2017,06,25,13,00,25.20
2017,06,25,13,01,25.30
2017,06,25,13,02,25.40
2017,06,25,13,03,25.50
2017,06,25,13,04,25.60
2017,06,25,13,05,25.60
2017,06,25,13,06,25.60
2017,06,25,13,07,25.70
2017,06,25,13,08,25.70
2017,06,25,13,09,25.80
2017,06,25,13,10,25.90
2017,06,25,13,11,26.00
2017,06,25,13,12,26.10
2017,06,25,13,13,26.20
2017,06,25,13,14,26.30
2017,06,25,13,15,26.30
2017,06,25,13,16,26.30
2017,06,25,13,17,26.20
2017,06,25,13,18,26.20
2017,06,25,13,19,26.30
2017,06,25,13,20,26.30
2017,06,25,13,21,26.40
2017,06,25,13,22,26.40
2017,06,25,13,23,26.40
2017,06,25,13,24,26.40
2017,06,25,13,25,26.40
2017,06,25,13,26,26.30
2017,06,25,13,27,26.20
2017,06,25,13,28,26.10
2017,06,25,13,29,26.00
2017,06,25,13,30,25.90
2017,06,25,13,31,25.80
2017,06,25,13,32,25.80
2017,06,25,13,33,25.80
2017,06,25,13,34,25.70
2017,06,25,13,35,25.70
2017,06,25,13,36,25.60
2017,06,25,13,37,25.60
2017,06,25,13,38,25.60
2017,06,25,13,39,25.50
2017,06,25,13,40,25.50
2017,06,25,13,41,25.40
2017,06,25,13,42,25.40
2017,06,25,13,43,25.50
2017,06,25,13,44,25.50
2017,06,25,13,45,25.60
2017,06,25,13,46,25.70
2017,06,25,13,47,25.70
2017,06,25,13,48,25.70
2017,06,25,13,49,25.70
2017,06,25,13,50,25.60
2017,06,25,13,51,25.50
2017,06,25,13,52,25.50
2017,06,25,13,53,25.50
2017,06,25,13,54,25.60
2017,06,25,13,55,25.70
2017,06,25,13,56,25.80
2017,06,25,13,57,25.80
2017,06,25,13,58,25.80
2017,06,25,13,59,25.80
2017,06,25,14,00,25.80
2017,06,25,14,01,25.80
2017,06,25,14,02,25.80
2017,06,25,14,03,25.70
2017,06,25,14,04,25.70
2017,06,25,14,05,25.70
2017,06,25,14,06,25.70
2017,06,25,14,07,25.70
2017,06,25,14,08,25.60
2017,06,25,14,09,25.60
2017,06,25,14,10,25.60
2017,06,25,14,11,25.60
2017,06,25,14,12,25.60
2017,06,25,14,13,25.60
2017,06,25,14,14,25.60
2017,06,25,14,15,25.60
2017,06,25,14,16,25.60
2017,06,25,14,17,25.60
2017,06,25,14,18,25.60
2017,06,25,14,19,25.60
2017,06,25,14,20,25.50
2017,06,25,14,21,25.50
2017,06,25,14,22,25.50
2017,06,25,14,23,25.40
2017,06,25,14,24,25.40
2017,06,25,14,25,25.40
2017,06,25,14,26,25.30
2017,06,25,14,27,25.30
2017,06,25,14,28,25.30
2017,06,25,14,29,25.40
2017,06,25,14,30,25.40
2017,06,25,14,31,25.40
2017,06,25,14,32,25.40
2017,06,25,14,33,25.50
2017,06,25,14,34,25.60
2017,06,25,14,35,25.70
2017,06,25,14,36,25.80
2017,06,25,14,37,25.90
2017,06,25,14,38,25.90
2017,06,25,14,39,26.00
2017,06,25,14,40,26.20
2017,06,25,14,41,26.20
2017,06,25,14,42,26.20
2017,06,25,14,43,26.30
2017,06,25,14,44,26.30
2017,06,25,14,45,26.30
2017,06,25,14,46,26.40
2017,06,25,14,47,26.50
2017,06,25,14,48,26.60
2017,06,25,14,49,26.60
2017,06,25,14,50,26.70
2017,06,25,14,51,26.70
2017,06,25,14,52,26.80
2017,06,25,14,53,26.80
2017,06,25,14,54,26.90
2017,06,25,14,55,26.90
2017,06,25,14,56,27.00
2017,06,25,14,57,27.00
2017,06,25,14,58,27.10
2017,06,25,14,59,27.10
2017,06,25,15,00,27.10
2017,06,25,15,01,27.00
2017,06,25,15,02,26.90
2017,06,25,15,03,26.80
2017,06,25,15,04,26.70
2017,06,25,15,05,26.60
2017,06,25,15,06,26.40
2017,06,25,15,07,26.30
2017,06,25,15,08,26.20
2017,06,25,15,09,26.00
2017,06,25,15,10,25.90
2017,06,25,15,11,25.90
2017,06,25,15,12,25.80
2017,06,25,15,13,25.70
2017,06,25,15,14,25.70
2017,06,25,15,15,25.60
2017,06,25,15,16,25.60
2017,06,25,15,17,25.50
2017,06,25,15,18,25.50
2017,06,25,15,19,25.40
2017,06,25,15,20,25.40
2017,06,25,15,21,25.40
2017,06,25,15,22,25.50
2017,06,25,15,23,25.50
2017,06,25,15,24,25.50
2017,06,25,15,25,25.50
2017,06,25,15,26,25.60
2017,06,25,15,27,25.60
2017,06,25,15,28,25.60
2017,06,25,15,29,25.60
2017,06,25,15,30,25.60
2017,06,25,15,31,25.60
2017,06,25,15,32,25.60
2017,06,25,15,33,25.50
2017,06,25,15,34,25.50
2017,06,25,15,35,25.50
2017,06,25,15,36,25.50
2017,06,25,15,37,25.50
2017,06,25,15,38,25.60
2017,06,25,15,39,25.60
2017,06,25,15,40,25.60
2017,06,25,15,41,25.60
2017,06,25,15,42,25.70
2017,06,25,15,43,25.80
2017,06,25,15,44,25.80
2017,06,25,15,45,25.80
2017,06,25,15,46,25.90
2017,06,25,15,47,26.00
2017,06,25,15,48,26.00
2017,06,25,15,49,26.10
2017,06,25,15,50,26.10
2017,06,25,15,51,26.10
2017,06,25,15,52,26.20
2017,06,25,15,53,26.20
2017,06,25,15,54,26.30
2017,06,25,15,55,26.30
2017,06,25,15,56,26.30
2017,06,25,15,57,26.30
2017,06,25,15,58,26.30
2017,06,25,15,59,26.30
2017,06,25,16,00,26.40
2017,06,25,16,01,26.40
2017,06,25,16,02,26.40
2017,06,25,16,03,26.50
2017,06,25,16,04,26.50
2017,06,25,16,05,26.50
2017,06,25,16,06,26.50
2017,06,25,16,07,26.50
2017,06,25,16,08,26.40
2017,06,25,16,09,26.40
2017,06,25,16,10,26.30
2017,06,25,16,11,26.30
2017,06,25,16,12,26.30
2017,06,25,16,13,26.20
2017,06,25,16,14,26.20
2017,06,25,16,15,26.20
2017,06,25,16,16,26.20
2017,06,25,16,17,26.30
2017,06,25,16,18,26.30
2017,06,25,16,19,26.40
2017,06,25,16,20,26.50
2017,06,25,16,21,26.60
2017,06,25,16,22,26.70
2017,06,25,16,23,26.70
2017,06,25,16,24,26.70
2017,06,25,16,25,26.80
2017,06,25,16,26,26.80
2017,06,25,16,27,26.80
2017,06,25,16,28,26.80
2017,06,25,16,29,26.90
2017,06,25,16,30,26.90
2017,06,25,16,31,27.00
2017,06,25,16,32,27.00
2017,06,25,16,33,27.10
2017,06,25,16,34,27.10
2017,06,25,16,35,27.20
2017,06,25,16,36,27.30
2017,06,25,16,37,27.30
2017,06,25,16,38,27.30
2017,06,25,16,39,27.30
2017,06,25,16,40,27.40
2017,06,25,16,41,27.40
2017,06,25,16,42,27.40
2017,06,25,16,43,27.40
2017,06,25,16,44,27.30
2017,06,25,16,45,27.30
2017,06,25,16,46,27.30
2017,06,25,16,47,27.30
2017,06,25,16,48,27.30
2017,06,25,16,49,27.30
2017,06,25,16,50,27.20
2017,06,25,16,51,27.10
2017,06,25,16,52,27.10
2017,06,25,16,53,27.00
2017,06,25,16,54,27.00
2017,06,25,16,55,26.90
2017,06,25,16,56,26.80
2017,06,25,16,57,26.80
2017,06,25,16,58,26.70
2017,06,25,16,59,26.60
2017,06,25,17,00,26.50
2017,06,25,17,01,26.50
2017,06,25,17,02,26.40
2017,06,25,17,03,26.30
2017,06,25,17,04,26.20
2017,06,25,17,05,26.10
2017,06,25,17,06,26.00
2017,06,25,17,07,25.90
2017,06,25,17,08,25.80
2017,06,25,17,09,25.70
2017,06,25,17,10,25.60
2017,06,25,17,11,25.60
2017,06,25,17,12,25.50
2017,06,25,17,13,25.40
2017,06,25,17,14,25.30
2017,06,25,17,15,25.30
2017,06,25,17,16,25.20
2017,06,25,17,17,25.10
2017,06,25,17,18,25.10
2017,06,25,17,19,25.10